Weather History for Concord, NH

Change the Weather History Date:

Saturday, November 24, 2012

  Actual Average Record
Temperature  
Mean Temperature 37 °F 35 °F  
Max Temperature 45 °F 45 °F 69 °F (1999)
Min Temperature 29 °F 26 °F -5 °F (1989)
Degree Days  
Heating Degree Days 28 30  
Month to date heating degree days 647 615  
Since 1 July heating degree days 1253 1374  
Moisture  
Dew Point 24 °F    
Average Humidity 64    
Maximum Humidity 93    
Minimum Humidity 34    
Precipitation  
Precipitation 0.01 in 0.12 in 3.25 in (1923)
Month to date precipitation 0.50 3.02  
Year to date precipitation 35.72 36.71  
Snow  
Snow 0.00 in 0.20 in 7.30 in (1938)
Month to date snowfall 1.0 1.5  
Since 1 July snowfall 1.0 1.5  
Since 1 September snowfall 1.0 1.5  
Snow Depth 0.00 in    
Sea Level Pressure  
Sea Level Pressure 29.58 in    
Wind  
Wind Speed 11 mph (WNW)    
Max Wind Speed 23 mph    
Max Gust Speed 31 mph    
Visibility 10 miles    
Events Rain    
T = Trace of Precipitation, MM = Missing Value Source: NWS Daily Summary

Daily Weather History Graph

Daily Weather History Graph

Search for Another Location

Airport:

Trip Planner

Search our weather history database for the weather conditions in past years. The results will help you decide how hot, cold, wet, or windy it might be!

Date:

Astronomy

Nov. 24, 2012 Rise Set
Actual Time 6:50 AM EST 4:14 PM EST
Civil Twilight 6:19 AM EST 4:46 PM EST
Nautical Twilight 5:44 AM EST 5:21 PM EST
Astronomical Twilight 5:10 AM EST 5:55 PM EST
Moon 2:02 PM EST (11/24) 2:59 AM EST (11/24)
Length of Visible Light 10h 26m
Length of Day
9h 24m
Waxing Gibbous, 87% of the Moon is Illuminated
Nov 24
Waxing Gibbous
Nov 28
Full
Dec 6
Last Quarter
Dec 13
New
Dec 20
First Quarter

Hourly Weather History & Observations

Time (EST) Temp. Windchill Dew Point Humidity Pressure Visibility Wind Dir Wind Speed Gust Speed Precip Events Conditions
12:51 AM 44.1 °F 41.5 °F 41.0 °F 89% 29.59 in 10.0 mi SSE 4.6 mph - 0.00 in   Overcast
1:51 AM 44.1 °F 41.5 °F 41.0 °F 89% 29.59 in 10.0 mi SSE 4.6 mph - N/A   Overcast
2:51 AM 42.8 °F - 41.0 °F 93% 29.56 in 10.0 mi Calm Calm - N/A Rain Light Rain
3:51 AM 41.0 °F - 39.9 °F 96% 29.55 in 6.0 mi Calm Calm - 0.00 in Rain Light Rain
4:51 AM 44.1 °F 41.5 °F 39.0 °F 82% 29.56 in 10.0 mi NW 4.6 mph - 0.01 in   Overcast
5:51 AM 43.0 °F 37.2 °F 30.0 °F 60% 29.57 in 10.0 mi WNW 10.4 mph 21.9 mph N/A   Overcast
6:51 AM 42.1 °F 36.1 °F 26.1 °F 53% 29.57 in 10.0 mi West 10.4 mph - N/A   Overcast
7:51 AM 41.0 °F 34.3 °F 23.0 °F 49% 29.58 in 10.0 mi West 11.5 mph 20.7 mph N/A   Overcast
8:51 AM 39.9 °F 31.1 °F 19.9 °F 45% 29.59 in 10.0 mi West 17.3 mph 27.6 mph N/A   Overcast
9:51 AM 41.0 °F 33.5 °F 19.9 °F 43% 29.59 in 10.0 mi WNW 13.8 mph 21.9 mph N/A   Clear
10:51 AM 42.1 °F 34.2 °F 19.0 °F 40% 29.57 in 10.0 mi WNW 16.1 mph 27.6 mph N/A   Clear
11:51 AM 42.1 °F 33.9 °F 17.1 °F 37% 29.54 in 10.0 mi WNW 17.3 mph 27.6 mph N/A   Partly Cloudy
12:51 PM 41.0 °F 32.2 °F 16.0 °F 36% 29.52 in 10.0 mi WNW 18.4 mph 27.6 mph N/A   Partly Cloudy
1:51 PM 39.9 °F 31.1 °F 17.1 °F 40% 29.51 in 10.0 mi WNW 17.3 mph 24.2 mph N/A   Partly Cloudy
2:51 PM 39.9 °F 31.8 °F 16.0 °F 38% 29.52 in 10.0 mi WNW 15.0 mph 23.0 mph N/A   Overcast
3:51 PM 39.0 °F 31.0 °F 16.0 °F 39% 29.54 in 10.0 mi West 13.8 mph 23.0 mph N/A   Overcast
4:51 PM 36.0 °F 26.7 °F 16.0 °F 44% 29.56 in 10.0 mi West 15.0 mph 23.0 mph N/A   Mostly Cloudy
5:51 PM 35.1 °F 26.4 °F 16.0 °F 46% 29.58 in 10.0 mi WNW 12.7 mph 21.9 mph N/A   Overcast
6:51 PM 32.0 °F 23.0 °F 21.0 °F 64% 29.60 in 10.0 mi NW 11.5 mph - N/A   Mostly Cloudy
7:51 PM 30.9 °F 22.2 °F 19.0 °F 61% 29.61 in 10.0 mi WNW 10.4 mph 23.0 mph N/A   Mostly Cloudy
8:51 PM 30.9 °F 20.7 °F 16.0 °F 54% 29.62 in 10.0 mi WNW 13.8 mph 19.6 mph N/A   Mostly Cloudy
9:51 PM 30.9 °F 23.5 °F 18.0 °F 59% 29.62 in 10.0 mi West 8.1 mph 20.7 mph N/A   Overcast
10:51 PM 30.0 °F 19.1 °F 17.1 °F 59% 29.63 in 10.0 mi West 15.0 mph 25.3 mph N/A   Partly Cloudy
11:51 PM 30.0 °F 21.1 °F 18.0 °F 61% 29.63 in 10.0 mi WNW 10.4 mph 23.0 mph N/A   Mostly Cloudy